Wind_Speed
25 23 22 20 20 22 22 24 22 19 18 26 31 32 31 31 35 37 40 42 40 41 41 40 41 41 40 40 40 40 40 40 40 39 39 39 39 38 38 39 40 42 44 44
26 24 24 26 29 28 28 29 27 22 21 29 36 36 33 34 36 41 44 45 43 40 39 41 43 44 45 44 44 43 43 43 43 43 43 42 41 40 40 40 42 44 45 46
27 24 29 32 32 30 29 28 28 28 24 27 37 40 37 36 40 46 47 46 46 45 44 44 45 46 47 47 47 46 45 45 45 45 45 44 44 43 42 42 43 45 48 48
29 29 34 33 30 29 28 24 27 29 31 30 30 32 32 32 37 43 45 45 46 46 45 44 45 46 47 48 48 47 46 45 45 45 45 45 45 45 45 46 47 48 50 50
23 28 31 30 28 28 28 29 32 32 34 36 35 34 32 27 33 39 41 40 40 42 43 43 43 44 45 46 47 46 46 45 45 45 45 46 47 47 49 50 50 51 52 52
14 19 21 23 27 32 33 34 37 37 37 39 37 36 37 31 35 42 44 41 37 37 39 41 42 42 43 44 45 45 45 45 45 45 46 47 48 50 51 52 53 54 54 53
7 10 11 13 17 22 27 32 36 38 39 41 34 35 36 37 43 47 48 45 41 38 37 38 40 41 42 43 44 45 45 46 47 47 48 49 50 52 53 54 55 55 54 52
10 11 13 14 16 18 20 24 29 34 35 35 33 36 40 42 46 49 51 51 50 49 47 45 44 43 44 44 45 47 48 49 49 50 51 52 53 54 54 54 54 53 51 49
16 17 19 20 22 24 26 28 30 34 36 37 36 38 42 43 45 48 52 53 53 52 51 51 50 49 48 48 49 49 50 51 52 53 53 54 54 54 54 53 51 49 47 44
19 21 20 23 26 27 29 31 33 36 39 40 39 35 40 44 46 46 48 52 53 52 52 52 51 50 49 49 49 50 51 52 52 52 51 51 51 50 49 48 46 44 42 40
15 15 15 19 24 26 29 30 31 35 38 40 40 38 38 40 43 45 43 40 44 49 50 48 47 46 46 46 46 46 46 46 46 46 45 45 44 44 42 41 40 39 37 36
13 13 14 15 19 23 26 29 33 35 36 37 40 41 40 41 43 45 46 42 38 38 40 40 40 41 42 42 42 42 42 42 42 41 41 40 40 39 37 36 35 35 34 33
13 14 15 15 19 23 27 30 34 39 41 40 40 40 39 40 41 43 45 44 41 37 35 35 36 37 38 38 39 40 40 40 40 39 39 38 37 36 35 34 34 33 33 32
14 16 17 19 19 22 26 30 35 39 42 43 40 41 40 39 39 39 38 39 37 36 35 34 33 34 35 36 37 37 38 37 37 37 36 36 35 35 34 34 34 34 34 33
15 17 19 21 22 23 25 25 27 32 36 39 38 37 37 37 37 37 36 35 34 33 33 32 33 34 35 35 36 36 36 36 35 34 33 33 33 33 34 34 35 35 36 36
18 18 19 21 24 25 25 24 25 27 30 32 34 34 34 34 34 35 35 35 33 31 30 31 32 33 35 35 35 35 35 34 33 32 31 32 32 33 34 35 36 37 38 38
20 20 20 22 24 25 22 26 26 25 26 27 28 28 28 30 30 31 31 30 29 27 27 28 30 30 30 32 33 34 35 34 32 32 32 32 33 34 35 36 37 38 38 39
19 19 20 21 23 23 25 24 24 23 22 21 21 20 20 21 21 21 22 21 21 22 23 25 26 27 28 29 30 31 31 31 30 30 31 31 33 34 35 36 37 38 39 40
19 19 20 20 21 22 23 24 22 19 18 18 17 15 15 15 15 15 16 16 16 17 18 19 20 22 22 24 25 26 26 27 27 28 29 30 31 32 33 34 35 36 37 39
19 19 19 19 20 20 22 22 20 19 16 16 15 13 13 13 14 13 14 14 14 14 14 15 15 16 17 18 20 22 23 24 25 26 26 27 28 29 31 32 33 34 35 35
24 21 19 19 19 19 20 20 20 18 17 16 15 14 13 13 13 13 13 13 14 14 13 13 13 14 15 16 17 19 20 21 21 22 24 25 26 28 29 30 30 30 30 30
25 23 21 20 20 20 19 19 19 17 16 16 14 14 13 13 13 13 13 14 14 13 13 13 13 14 15 16 17 17 18 19 20 22 23 24 25 25 26 26 26 26 26 25
27 25 23 21 22 21 19 18 18 17 15 14 14 13 13 12 11 11 11 11 12 12 11 11 11 11 12 13 15 17 18 20 21 21 22 22 22 23 23 23 23 24 24 24
29 29 26 22 21 22 20 19 17 16 14 13 12 11 10 9 8 8 7 6 6 6 6 7 7 8 9 10 12 13 15 17 17 18 19 19 20 21 21 21 22 22 23 24
28 30 29 25 22 22 21 20 18 16 15 13 12 10 8 8 7 6 5 5 5 5 5 5 5 6 7 8 9 9 11 12 14 15 16 17 18 19 20 21 22 23 25 26
24 28 29 27 25 23 21 21 20 18 17 16 15 13 11 9 8 6 6 6 6 5 5 5 5 6 6 7 7 8 9 10 11 12 13 15 16 18 19 21 22 23 25 27
Wind_Direction
236 236 236 237 242 240 228 233 235 244 244 242 250 245 237 238 245 249 253 254 252 254 254 256 259 262 264 266 268 270 273 275 277 279 281 283 286 287 287 287 289 291 294 297
239 238 239 234 235 237 236 237 233 224 232 234 239 244 242 234 244 250 252 255 257 257 256 257 258 261 264 266 268 270 271 272 274 276 278 279 282 283 284 285 286 288 292 294
236 233 236 237 241 244 247 248 245 235 230 246 250 252 253 243 241 249 253 257 259 259 258 258 258 260 263 266 268 269 271 272 273 274 276 277 277 279 280 282 284 286 288 291
237 236 242 244 245 247 249 250 248 243 237 242 255 262 259 255 251 253 255 257 259 260 259 258 258 260 262 265 267 268 269 270 270 271 272 273 274 276 278 280 282 284 286 289
243 244 248 251 249 245 241 241 243 242 243 244 247 256 258 257 262 263 262 260 260 260 259 258 257 257 258 260 263 264 266 268 269 270 272 274 275 277 278 280 282 284 286 289
248 255 260 258 250 249 248 248 251 253 254 254 254 257 259 256 258 261 262 264 262 260 259 259 259 259 258 259 260 261 263 265 268 270 273 275 277 278 280 282 284 285 287 289
271 274 277 274 266 261 261 260 261 260 259 261 264 264 262 257 254 256 262 264 263 259 261 262 261 260 260 259 260 261 262 265 267 270 273 275 277 279 281 283 284 286 287 288
282 280 278 275 272 271 269 267 266 265 263 261 255 254 253 253 255 256 258 260 262 263 263 263 263 261 261 260 261 262 263 265 268 270 273 275 277 278 280 281 283 285 286 287
288 279 279 278 273 272 274 273 272 271 269 266 259 255 257 257 256 256 256 257 258 261 263 263 262 260 260 261 262 263 264 266 268 270 272 274 276 277 278 280 282 283 285 286
288 286 282 278 279 278 277 276 275 273 274 274 271 264 256 257 259 260 258 253 253 257 261 263 262 261 260 261 262 264 266 267 269 270 272 273 274 275 277 278 280 282 282 283
298 300 300 285 281 283 279 276 271 272 273 273 272 266 260 259 259 262 262 261 257 257 260 262 262 261 261 262 264 265 266 267 268 269 270 271 273 274 275 277 278 279 280 281
303 313 319 308 297 291 286 278 272 271 269 268 267 267 266 263 260 261 263 267 267 264 261 261 262 261 262 263 264 265 265 266 267 269 270 272 273 274 274 275 275 277 278 280
312 320 325 322 307 301 292 285 277 274 269 268 267 268 267 266 265 264 265 269 271 267 263 262 262 261 262 263 264 265 265 266 267 268 269 270 271 272 272 273 274 275 277 278
311 318 322 323 314 303 297 290 284 280 279 275 271 269 265 266 266 266 268 271 272 270 268 265 261 260 261 262 264 265 265 265 266 267 268 268 269 270 271 272 273 274 275 275
309 315 320 324 324 319 312 302 292 288 287 284 281 278 273 270 269 267 269 272 275 275 272 268 261 259 260 262 263 264 264 265 265 266 267 268 268 269 271 273 274 275 275 275
307 312 317 323 327 327 323 317 307 298 292 287 284 279 274 271 269 270 273 277 277 275 272 265 261 259 259 260 262 263 263 263 264 264 265 267 269 271 272 274 276 276 275 275
302 309 316 323 327 328 328 323 316 310 304 297 290 283 277 272 274 276 277 275 273 270 267 265 262 261 262 262 262 262 260 261 262 264 266 269 272 274 275 276 277 277 277 277
294 303 311 319 326 329 329 333 325 317 311 306 299 292 286 282 282 279 276 271 268 266 263 264 262 264 266 265 264 263 260 259 261 264 268 272 275 276 277 278 279 279 279 279
292 300 307 315 323 328 331 336 333 325 317 313 308 300 295 289 282 276 271 267 265 265 265 266 267 266 267 266 264 262 261 261 265 268 272 274 276 278 279 280 281 281 282 282
291 295 301 308 317 324 329 338 336 331 327 323 314 306 297 290 284 280 276 273 269 268 266 266 267 269 270 270 268 264 264 264 267 271 274 276 278 280 282 283 284 284 285 285
292 294 298 305 312 313 325 334 335 334 336 330 323 316 307 301 298 293 289 284 279 275 272 271 271 270 270 270 269 267 266 267 268 272 276 280 283 285 286 286 287 288 288 287
281 286 292 296 300 301 317 324 328 332 333 330 326 320 316 311 303 298 294 290 287 283 280 277 275 274 272 271 270 269 269 270 273 277 282 285 286 287 288 288 288 288 288 288
271 274 276 281 287 295 303 309 314 320 327 331 331 327 322 320 317 309 303 298 295 290 286 283 282 280 278 276 275 275 277 278 281 283 285 286 287 288 288 288 289 288 287 286
261 267 269 269 275 282 289 295 300 306 314 321 328 335 339 341 342 340 333 325 319 313 303 297 294 294 293 292 291 289 287 287 287 287 287 287 288 290 291 292 291 290 290 288
261 261 266 268 269 272 277 283 288 293 297 303 309 316 326 340 349 354 357 354 347 340 333 325 318 314 310 309 310 307 303 299 295 292 291 291 291 291 292 293 293 293 292 291
272 262 263 264 266 269 273 276 278 281 285 288 291 295 297 302 311 317 320 323 326 326 325 325 325 325 325 323 320 317 314 310 305 301 299 298 298 298 298 298 297 297 296 296
Height
5846 5850 5852 5854 5856 5858 5860 5862 5865 5871 5873 5872 5870 5872 5875 5875 5874 5874 5873 5873 5877 5878 5880 5882 5882 5883 5884 5885 5885 5885 5885 5885 5885 5885 5884 5883 5883 5882 5882 5882 5881 5880 5880 5881
5843 5847 5848 5848 5848 5851 5853 5856 5859 5862 5865 5864 5863 5863 5867 5868 5867 5865 5865 5867 5870 5871 5870 5874 5875 5875 5876 5877 5878 5878 5879 5879 5878 5878 5877 5877 5876 5876 5875 5875 5875 5874 5874 5873
5838 5841 5840 5842 5844 5847 5849 5851 5853 5856 5857 5856 5855 5856 5859 5861 5860 5858 5859 5860 5862 5863 5865 5867 5868 5867 5868 5869 5869 5870 5871 5871 5871 5870 5870 5869 5869 5869 5868 5868 5868 5867 5867 5866
5831 5834 5834 5837 5840 5842 5844 5846 5846 5847 5849 5850 5850 5849 5852 5853 5853 5851 5853 5854 5854 5854 5856 5858 5859 5860 5860 5860 5860 5861 5862 5862 5862 5862 5862 5861 5861 5861 5861 5860 5860 5860 5859 5859
5827 5828 5829 5832 5835 5836 5837 5837 5837 5838 5840 5842 5843 5843 5845 5848 5844 5842 5843 5845 5846 5846 5846 5847 5849 5850 5851 5851 5852 5852 5852 5853 5853 5853 5853 5853 5853 5852 5852 5851 5851 5851 5851 5850
5824 5824 5826 5827 5828 5828 5830 5831 5830 5831 5833 5833 5836 5836 5836 5840 5837 5832 5830 5834 5837 5837 5837 5838 5839 5840 5842 5842 5843 5844 5844 5844 5844 5844 5844 5844 5844 5843 5843 5842 5842 5841 5841 5840
5822 5822 5822 5823 5823 5824 5825 5826 5825 5825 5825 5825 5830 5828 5829 5827 5825 5822 5822 5824 5826 5826 5828 5829 5830 5831 5832 5833 5834 5835 5835 5836 5836 5836 5836 5835 5835 5834 5834 5833 5832 5831 5830 5829
5819 5820 5820 5819 5819 5819 5819 5819 5819 5817 5817 5818 5820 5817 5815 5813 5813 5812 5813 5813 5815 5816 5819 5820 5821 5822 5823 5824 5825 5826 5826 5826 5827 5827 5827 5826 5826 5825 5824 5823 5822 5821 5820 5819
5816 5816 5815 5815 5814 5814 5813 5812 5812 5809 5806 5805 5807 5809 5806 5804 5802 5800 5801 5801 5802 5804 5805 5807 5809 5811 5812 5813 5814 5815 5816 5816 5817 5817 5817 5816 5815 5814 5813 5813 5812 5811 5810 5809
5811 5810 5810 5809 5808 5807 5806 5804 5803 5800 5796 5795 5796 5799 5798 5794 5793 5790 5786 5786 5788 5790 5792 5793 5795 5798 5800 5801 5803 5804 5804 5805 5805 5805 5805 5805 5805 5804 5803 5803 5802 5801 5801 5800
5807 5806 5805 5803 5800 5799 5798 5796 5793 5790 5788 5786 5785 5788 5785 5785 5783 5781 5776 5773 5775 5777 5779 5781 5783 5785 5787 5789 5791 5792 5793 5793 5794 5794 5794 5794 5794 5794 5794 5794 5793 5793 5792 5791
5804 5802 5800 5798 5795 5791 5789 5787 5784 5781 5778 5776 5774 5777 5774 5774 5773 5771 5769 5766 5767 5768 5770 5771 5772 5774 5776 5778 5780 5781 5782 5783 5784 5784 5785 5785 5785 5785 5785 5785 5785 5785 5784 5784
5801 5799 5796 5793 5792 5786 5782 5779 5775 5771 5768 5764 5763 5766 5763 5762 5762 5761 5759 5757 5758 5760 5761 5762 5763 5765 5767 5768 5770 5771 5772 5773 5774 5775 5776 5776 5776 5776 5777 5777 5777 5777 5777 5776
5797 5794 5792 5789 5785 5780 5775 5772 5767 5762 5757 5754 5752 5752 5751 5750 5750 5750 5749 5748 5749 5750 5752 5754 5755 5756 5758 5759 5760 5762 5763 5764 5765 5766 5767 5768 5768 5768 5768 5768 5768 5768 5768 5768
5793 5790 5787 5783 5778 5773 5768 5764 5760 5754 5749 5745 5742 5740 5739 5739 5740 5740 5739 5739 5740 5742 5743 5745 5747 5748 5749 5751 5752 5753 5754 5755 5757 5758 5758 5759 5759 5760 5760 5760 5760 5760 5760 5760
5788 5786 5782 5778 5772 5767 5761 5757 5752 5747 5742 5737 5734 5732 5730 5730 5730 5730 5730 5732 5733 5734 5736 5737 5739 5740 5741 5742 5744 5745 5746 5747 5748 5749 5750 5750 5751 5751 5751 5751 5751 5751 5751 5751
5783 5780 5777 5773 5768 5762 5756 5752 5746 5741 5735 5731 5727 5725 5723 5722 5722 5723 5724 5725 5726 5727 5728 5730 5731 5732 5733 5735 5736 5737 5738 5739 5740 5741 5742 5743 5743 5743 5743 5742 5742 5741 5741 5740
5779 5776 5772 5768 5764 5757 5755 5747 5742 5736 5731 5726 5722 5719 5718 5717 5717 5717 5718 5719 5719 5720 5721 5722 5724 5725 5727 5727 5729 5730 5731 5732 5733 5734 5734 5735 5735 5734 5734 5733 5733 5732 5731 5730
5773 5770 5767 5764 5759 5755 5750 5743 5738 5733 5729 5725 5721 5718 5716 5715 5714 5714 5714 5715 5715 5715 5716 5716 5718 5719 5720 5721 5722 5723 5724 5725 5726 5726 5727 5727 5727 5726 5725 5725 5724 5723 5722 5721
5767 5765 5763 5759 5756 5751 5748 5741 5736 5732 5727 5723 5719 5717 5715 5714 5713 5713 5712 5711 5711 5711 5711 5712 5713 5713 5714 5715 5716 5717 5718 5718 5719 5720 5720 5720 5719 5718 5718 5717 5716 5715 5713 5712
5760 5759 5757 5754 5751 5748 5744 5739 5735 5731 5728 5722 5718 5716 5714 5712 5711 5710 5709 5708 5707 5707 5707 5707 5708 5708 5709 5710 5711 5712 5712 5713 5714 5714 5714 5713 5713 5712 5710 5709 5708 5707 5705 5704
5755 5753 5751 5749 5747 5746 5740 5737 5734 5730 5725 5721 5718 5715 5712 5710 5709 5707 5706 5705 5704 5704 5703 5704 5704 5704 5705 5706 5706 5707 5707 5708 5708 5708 5708 5707 5706 5705 5704 5703 5702 5700 5699 5698
5747 5747 5745 5745 5744 5740 5737 5734 5731 5728 5724 5720 5717 5714 5711 5709 5707 5705 5704 5703 5702 5701 5701 5701 5701 5701 5701 5701 5702 5702 5702 5702 5702 5702 5702 5701 5700 5699 5698 5697 5696 5695 5693 5692
5738 5737 5737 5737 5736 5734 5732 5730 5728 5725 5722 5719 5716 5713 5711 5708 5706 5704 5703 5701 5700 5699 5699 5699 5698 5698 5698 5698 5698 5698 5697 5697 5697 5697 5697 5696 5695 5694 5693 5692 5691 5690 5688 5687
5729 5728 5727 5728 5729 5728 5727 5725 5723 5721 5719 5717 5715 5712 5710 5708 5706 5704 5703 5701 5700 5699 5698 5698 5697 5697 5696 5695 5695 5694 5694 5693 5693 5692 5692 5691 5690 5689 5688 5687 5686 5684 5683 5681
5721 5719 5719 5720 5720 5720 5720 5719 5717 5716 5715 5713 5712 5710 5708 5707 5705 5704 5702 5701 5700 5699 5698 5697 5696 5695 5694 5693 5693 5692 5691 5690 5690 5689 5688 5687 5686 5685 5683 5682 5680 5679 5677 5674